EW3176 Weather Reports


Display with metric or nautical units.
time (UTC)temp
F
wind
direction
speed
MPH
gust
MPH
rain 1hr
in
rain 24hr
in
rain mn
in
humidity
%
barometer
mb
20260503024520 48 0.0 0.0 0.00 0.00 0.00 87 1017.0
20260503023521 48 0.0 0.0 0.00 0.00 0.00 86 1016.8
20260503022541 49 0.0 0.0 0.00 0.00 0.00 85 1016.8
20260503021541 49 0.0 0.0 0.00 0.00 0.00 84 1016.7
20260503020520 50 0.0 0.0 0.00 0.00 0.00 83 1016.7
20260503015541 50 0.0 0.0 0.00 0.00 0.00 83 1016.7
20260503014520 51 0.0 0.0 0.00 0.00 0.00 82 1016.5
20260503013541 51 0.0 0.0 0.00 0.00 0.00 81 1016.4
20260503012520 51 0.0 0.0 0.00 0.00 0.00 80 1016.3
20260503011543 52 0.0 0.0 0.00 0.00 0.00 80 1016.3
20260503010520 52 0.0 0.0 0.00 0.00 0.00 79 1016.1
20260503005520 52 0.0 0.0 0.00 0.00 0.00 78 1016.1
20260503004522 52 0.0 0.0 0.00 0.00 0.00 77 1015.9
20260503003522 53 0.0 0.0 0.00 0.00 0.00 76 1015.8
20260503002520 53 0.0 0.0 0.00 0.00 0.00 75 1015.8
20260503001520 54 0.0 0.0 0.00 0.00 0.00 74 1015.7
20260503000522 55 0.0 0.0 0.00 0.00 0.00 74 1015.3
20260502235523 55 0.0 0.0 0.00 0.00 0.00 73 1015.2
20260502234618 56 0.0 0.0 0.00 0.00 0.00 71 1015.1
20260502233522 56 0.0 0.0 0.00 0.00 0.00 69 1014.9
20260502232522 57 0.0 0.0 0.00 0.00 0.00 68 1014.8
20260502231600 58 0.0 0.0 0.00 0.00 0.00 66 1014.7
20260502230603 58 0.0 0.0 0.00 0.00 0.00 65 1014.8
20260502225522 58 0.0 0.0 0.00 0.00 0.00 65 1014.8
20260502224522 58 0.0 1.0 0.00 0.00 0.00 65 1014.8
20260502223520 58 0.0 1.0 0.00 0.00 0.00 65 1014.7
20260502222542 58 0.0 1.0 0.00 0.00 0.00 66 1014.7
20260502221542 58 0.0 1.0 0.00 0.00 0.00 67 1014.6
20260502220524 58 0.0 0.0 0.00 0.00 0.00 67 1014.6
20260502215522 58 0.0 2.0 0.00 0.00 0.00 67 1014.6
20260502214633 58 0.0 1.0 0.00 0.00 0.00 67 1014.4
20260502213523 58 0.0 1.0 0.00 0.00 0.00 66 1014.5
20260502212521 58 0.0 2.0 0.00 0.00 0.00 66 1014.4
20260502211522 59 0.0 4.0 0.00 0.00 0.00 66 1014.5
20260502210522 59 293 1.0 3.0 0.00 0.00 0.00 66 1014.6
20260502205542 59 0.0 1.0 0.00 0.00 0.00 67 1014.5
20260502204522 59 0.0 2.0 0.00 0.00 0.00 68 1014.5
20260502203602 60 0.0 2.0 0.00 0.00 0.00 67 1014.6
20260502202522 60 0.0 2.0 0.00 0.00 0.00 67 1014.6
20260502201522 60 270 1.0 4.0 0.00 0.00 0.00 67 1014.5
20260502200521 61 0.0 1.0 0.00 0.00 0.00 66 1014.6
20260502195521 62 0.0 1.0 0.00 0.00 0.00 66 1014.6
20260502194522 62 0.0 1.0 0.00 0.00 0.00 66 1014.6
20260502193522 62 0.0 1.0 0.00 0.00 0.00 66 1014.8
20260502192542 61 0.0 2.0 0.00 0.00 0.00 66 1014.8
20260502191521 61 0.0 1.0 0.00 0.00 0.00 67 1014.9
20260502190522 61 0.0 2.0 0.00 0.00 0.00 65 1014.9
20260502185522 62 0.0 1.0 0.00 0.00 0.00 65 1014.9
20260502184522 62 0.0 3.0 0.00 0.00 0.00 64 1015.1
20260502183521 61 0.0 1.0 0.00 0.00 0.00 65 1015.1
20260502182522 60 0.0 2.0 0.00 0.00 0.00 68 1015.2
20260502181522 60 0.0 2.0 0.00 0.00 0.00 67 1015.4
20260502180522 60 0.0 3.0 0.00 0.00 0.00 66 1015.4
20260502163522 58 0.0 2.0 0.00 0.00 0.00 78 1016.2
20260502162521 57 0.0 1.0 0.00 0.00 0.00 78 1016.7
20260502161522 57 0.0 0.0 0.00 0.00 0.00 79 1016.9
20260502160522 57 0.0 1.0 0.00 0.00 0.00 80 1017.0
20260502151521 56 0.0 1.0 0.00 0.00 0.00 79 1016.5
20260502150521 56 0.0 1.0 0.00 0.00 0.00 79 1016.6
20260502130521 55 0.0 1.0 0.00 0.00 0.00 77 1016.0
20260502123521 54 0.0 0.0 0.00 0.00 0.00 78 1015.9
20260502122521 54 0.0 1.0 0.00 0.00 0.00 79 1016.0
20260502121541 54 0.0 1.0 0.00 0.00 0.00 79 1015.6
20260502120521 54 0.0 1.0 0.00 0.00 0.00 80 1015.5
20260502115021 54 0.0 1.0 0.00 0.00 0.00 81 1015.7
20260502114021 54 0.0 0.0 0.00 0.00 0.00 82 1015.8
20260502113102 53 0.0 1.0 0.00 0.00 0.00 82 1015.7
20260502112021 54 0.0 0.0 0.00 0.00 0.00 83 1015.6
20260502111021 54 0.0 0.0 0.00 0.00 0.00 84 1015.9
20260502110021 54 0.0 0.0 0.00 0.00 0.00 83 1015.9
20260502105541 54 0.0 0.0 0.00 0.00 0.00 83 1015.8
20260502104541 54 0.0 1.0 0.00 0.00 0.00 82 1016.0
20260502103521 55 0.0 1.0 0.00 0.00 0.00 80 1015.8
20260502102521 55 0.0 1.0 0.00 0.00 0.00 81 1015.9
20260502101521 55 0.0 2.0 0.00 0.00 0.00 82 1016.0
20260502100521 55 0.0 3.0 0.00 0.00 0.00 84 1016.2
20260502091521 54 0.0 1.0 0.00 0.00 0.00 87 1016.0
20260502090541 54 0.0 1.0 0.00 0.00 0.00 87 1015.9
20260502070541 54 0.0 0.0 0.00 0.00 0.00 87 1015.2
20260502065520 54 0.0 0.0 0.00 0.00 0.00 88 1015.2
20260502064521 53 0.0 0.0 0.00 0.00 0.00 88 1015.4
20260502063521 54 0.0 1.0 0.00 0.00 0.00 88 1015.2
20260502062521 54 0.0 0.0 0.00 0.00 0.00 87 1015.2
20260502061520 54 0.0 1.0 0.00 0.00 0.00 88 1015.3
20260502060520 54 0.0 0.0 0.00 0.00 0.00 88 1015.3
20260502055521 54 0.0 0.0 0.00 0.00 0.00 88 1015.2
20260502054502 54 0.0 1.0 0.00 0.00 0.00 88 1015.6
20260502054021 54 0.0 1.0 0.00 0.00 0.00 88 1015.5
20260502053020 54 0.0 1.0 0.00 0.00 0.00 88 1015.6
20260502052020 54 0.0 0.0 0.00 0.00 0.00 88 1015.5
20260502051020 54 0.0 0.0 0.00 0.00 0.00 88 1015.6
20260502050021 54 0.0 1.0 0.00 0.00 0.00 88 1015.7
20260502045141 54 0.0 0.0 0.00 0.00 0.00 88 1015.9
20260502044020 54 0.0 0.0 0.00 0.00 0.00 88 1015.9
20260502043020 54 0.0 0.0 0.00 0.00 0.00 88 1016.0
20260502042022 54 0.0 0.0 0.00 0.00 0.00 88 1015.9
20260502041041 54 0.0 0.0 0.00 0.00 0.00 88 1016.0
20260502040022 54 0.0 1.0 0.00 0.00 0.00 88 1016.1
20260502035522 54 0.0 0.0 0.00 0.00 0.00 88 1016.2
20260502034521 54 0.0 0.0 0.00 0.00 0.00 88 1016.2
20260502033521 54 0.0 0.0 0.00 0.00 0.00 87 1016.3
20260502032540 54 0.0 0.0 0.00 0.00 0.00 87 1016.1
20260502031522 54 0.0 1.0 0.00 0.00 0.00 87 1016.1
20260502030522 54 0.0 0.0 0.00 0.00 0.00 86 1016.1
20260502025632 54 0.0 0.0 0.00 0.00 0.00 85 1016.2